Regional Weather Roundup
Issued by NWS

Home | Current Version | Previous Version | Text Only | Print | Product List | Glossary On
Versions: 1 2 3 4 5 6 7 8 9 10 11 12 13 14 15 16 17 18 19 20 21 22 23 24 25 26 27 28
000
ASUS44 KBMX 142310
RWRAL

ALABAMA REGIONAL WEATHER ROUNDUP
NATIONAL WEATHER SERVICE BIRMINGHAM AL
500 PM CST THU DEC 14 2017

NOTE: "FAIR" INDICATES FEW OR NO CLOUDS BELOW 12,000 FEET
WITH NO SIGNIFICANT WEATHER AND/OR OBSTRUCTIONS TO VISIBILITY.

THE REMARK "TC" DENOTES TEMPERATURE IN DEGREES CELSIUS.

ALZ001>011-014-016>018-020-150000-
NORTH ALABAMA

CITY           SKY/WX    TMP DP  RH WIND       PRES   REMARKS
MUSCLE SHOALS  CLEAR     48  29  47 NW5       30.00R
HUNTSVILLE     PTCLDY    47  33  58 N6        29.98R
DECATUR        CLEAR     43  33  68 N5        29.99R
HALEYVILLE     FAIR      46  33  60 N3        29.98S
GADSDEN        CLEAR     53  32  44 NW5       29.95R
$$

ALZ012-013-022-023-030>036-040>044-150000-
WEST CENTRAL ALABAMA

CITY           SKY/WX    TMP DP  RH WIND       PRES   REMARKS
TUSCALOOSA     CLOUDY    51  37  58 S7        29.98R
DEMOPOLIS        N/A     46  41  81 CALM      29.98S
$$

ALZ015-024>026-033>036-041>044-150000-
CENTRAL ALABAMA

CITY           SKY/WX    TMP DP  RH WIND       PRES   REMARKS
BIRMINGHAM     PTCLDY    53  32  44 SW5       29.97S
MONTGOMERY     CLOUDY    53  37  54 CALM      29.98R
SHELBY CO ARPT CLEAR     47  38  71 CALM      29.96R
MAXWELL AFB    NOT AVBL
GREENVILLE     FAIR      53  41  63 CALM      29.96R
SELMA          FAIR      50  41  71 CALM      29.98R
PRATTVILLE     FAIR      48  40  74 CALM      29.97R
BESSEMER       FAIR      50  36  58 S6        29.97R
TALLADEGA      FAIR      51  35  54 CALM      29.95F
PELL CITY      CLEAR     45  39  81 CALM      29.96S
MARION         FAIR      48  40  74 S3        29.98R
SYLACAUGA      FAIR      48  41  77 CALM      29.96S
$$

ALZ019-021-028-029-037-038-045>048-150000-
EAST CENTRAL ALABAMA

CITY           SKY/WX    TMP DP  RH WIND       PRES   REMARKS
ANNISTON       CLEAR     47  35  63 SW7       29.95S
ALEXANDER CITY CLOUDY    46  42  86 CALM      29.97R
AUBURN         CLOUDY    50  37  61 CALM      29.98R
$$

ALZ051>064-150000-
SOUTHWEST ALABAMA

CITY           SKY/WX    TMP DP  RH WIND       PRES   REMARKS
MOBILE         MOCLDY    56  43  61 S3        29.97S
BROOKLEY FIELD CLOUDY    56  47  71 S3        29.98F
EVERGREEN      CLOUDY    53  44  71 CALM      29.97R
$$

ALZ049-050-065>069-150000-
SOUTHEAST ALABAMA

CITY           SKY/WX    TMP DP  RH WIND       PRES   REMARKS
DOTHAN         CLOUDY    54  39  57 CALM      30.00S
OZARK          PTCLDY    54  38  54 CALM      29.97R
TROY           CLOUDY    53  42  66 CALM      29.98R
EUFAULA        FAIR      53  44  71 CALM      29.96R
$$




USA.gov is the U.S. government's official web portal to all federal, state and local government web resources and services.